sat.trackr.live / text

‹ back to catalog

STARLINK-11564 [DTC]

NORAD 62913 · 2025-027G

PAYLOAD ACTIVE UNKNOWN

§ Identity

Operator
Country
US
Launch date
2025-02-08
Launch site
AFETR
Launch vehicle
Mass (kg)
RCS (m²)

Purposes: comms

External: N2YO · Heavens-Above · Gunter

§ Orbital elements

Epoch: 2026-05-24T16:40:01.390656Z

Period
91.66 min
Inclination
43.0031°
Eccentricity
0.0004167
Mean motion
15.70942519 rev/d
Perigee alt
353.4 km
Apogee alt
359.0 km
Semi-major
6,734.3 km
B*
1.4289e-3
RAAN
249.7151°
Arg perigee
265.0166°
Mean anomaly
95.0226°
Rev number
7,510

§ Raw data

STARLINK-11564 [DTC]1 62913U 25027G   26144.69446054  .00187966  00000+0  14289-2 0  99942 62913  43.0031 249.7151 0004167 265.0166  95.0226 15.70942519 75107

JSON: /api/v1/satellites/62913 · /tle

For live sub-satellite position, see the globe view (requires WebGL).

§ Visibility from observer

Set your observer location to see the next 7 days of passes ≥ 10°. The values pass through the URL so the page stays shareable.

No JS? Fill the form by hand. The geolocation button needs JavaScript.